DAL1336 KATL-KORF

Flight info

Callsign DAL1336
Flight time 1h 21m
Altitude 37000
Route PHIIL3 HRTWL Q54 NUTZE KOHLS1
Aircraft B739/M-SDE2E3FGHIRWXY/LB1

Departure

Time 2026-05-07 11:41
Airport Hartsfield Jackson Atlanta International Airport (KATL)

Arrival

Time 2026-05-07 13:03
Airport Norfolk International Airport (KORF)
Time Latitude Longitude Altitude Speed Heading
2026-05-07 10:43 33.64367 -84.43243 1034 ft 0 kts 209°
2026-05-07 11:26 33.64378 -84.43235 1034 ft 4 kts 218°
2026-05-07 11:26 33.64394 -84.43212 1035 ft 4 kts 252°
2026-05-07 11:27 33.64396 -84.43182 1035 ft 4 kts 285°
2026-05-07 11:27 33.64387 -84.43153 1035 ft 4 kts 295°
2026-05-07 11:27 33.64378 -84.43124 1034 ft 3 kts 274°
2026-05-07 11:27 33.64377 -84.43119 1034 ft 1 kts 269°
2026-05-07 11:31 33.64377 -84.43120 1034 ft 0 kts 269°
2026-05-07 11:31 33.64376 -84.43129 1034 ft 2 kts 262°
2026-05-07 11:31 33.64360 -84.43146 1034 ft 4 kts 184°
2026-05-07 11:31 33.64337 -84.43140 1034 ft 3 kts 168°
2026-05-07 11:32 33.64298 -84.43133 1034 ft 5 kts 175°
2026-05-07 11:32 33.64253 -84.43132 1034 ft 8 kts 180°
2026-05-07 11:32 33.64187 -84.43132 1034 ft 10 kts 179°
2026-05-07 11:33 33.64124 -84.43132 1034 ft 8 kts 180°
2026-05-07 11:33 33.64069 -84.43132 1034 ft 8 kts 180°
2026-05-07 11:33 33.64012 -84.43132 1034 ft 9 kts 180°
2026-05-07 11:33 33.63950 -84.43132 1034 ft 9 kts 180°
2026-05-07 11:34 33.63885 -84.43132 1034 ft 10 kts 180°
2026-05-07 11:34 33.63818 -84.43133 1034 ft 10 kts 180°
2026-05-07 11:34 33.63748 -84.43132 1034 ft 10 kts 180°
2026-05-07 11:34 33.63683 -84.43112 1034 ft 10 kts 138°
2026-05-07 11:35 33.63665 -84.43027 1034 ft 12 kts 90°
2026-05-07 11:35 33.63665 -84.42917 1034 ft 15 kts 90°
2026-05-07 11:35 33.63664 -84.42787 1034 ft 16 kts 92°
2026-05-07 11:35 33.63656 -84.42655 1035 ft 16 kts 91°
2026-05-07 11:36 33.63656 -84.42519 1035 ft 17 kts 90°
2026-05-07 11:36 33.63656 -84.42379 1035 ft 17 kts 90°
2026-05-07 11:36 33.63656 -84.42236 1035 ft 17 kts 90°
2026-05-07 11:36 33.63656 -84.42089 1035 ft 18 kts 90°
2026-05-07 11:37 33.63656 -84.41937 1034 ft 18 kts 90°
2026-05-07 11:37 33.63656 -84.41781 1034 ft 19 kts 90°
2026-05-07 11:37 33.63656 -84.41623 1034 ft 19 kts 90°
2026-05-07 11:37 33.63656 -84.41463 1034 ft 19 kts 89°
2026-05-07 11:38 33.63656 -84.41300 1034 ft 20 kts 90°
2026-05-07 11:38 33.63656 -84.41149 1034 ft 16 kts 90°
2026-05-07 11:38 33.63656 -84.41042 1034 ft 10 kts 89°
2026-05-07 11:38 33.63657 -84.40977 1034 ft 7 kts 90°
2026-05-07 11:39 33.63634 -84.40921 1034 ft 8 kts 149°
2026-05-07 11:39 33.63573 -84.40913 1034 ft 9 kts 179°
2026-05-07 11:39 33.63508 -84.40914 1035 ft 9 kts 188°
2026-05-07 11:39 33.63472 -84.40970 1035 ft 10 kts 263°
2026-05-07 11:40 33.63472 -84.41072 1034 ft 16 kts 270°
2026-05-07 11:40 33.63471 -84.41389 1034 ft 69 kts 269°
2026-05-07 11:40 33.63471 -84.42212 1035 ft 126 kts 270°
2026-05-07 11:40 33.63455 -84.43447 1050 ft 169 kts 263°
2026-05-07 11:41 33.63422 -84.44879 1545 ft 177 kts 267°
2026-05-07 11:41 33.63435 -84.46313 2363 ft 169 kts 268°
2026-05-07 11:41 33.63314 -84.47782 2706 ft 186 kts 253°
2026-05-07 11:41 33.62770 -84.49255 3045 ft 202 kts 240°
2026-05-07 11:42 33.62045 -84.50751 3577 ft 210 kts 239°
2026-05-07 11:42 33.61325 -84.52383 3856 ft 235 kts 245°
2026-05-07 11:42 33.60597 -84.54208 4486 ft 244 kts 244°
2026-05-07 11:42 33.59836 -84.56005 5438 ft 242 kts 240°
2026-05-07 11:43 33.58661 -84.57469 6281 ft 248 kts 217°
2026-05-07 11:43 33.57059 -84.58335 6997 ft 261 kts 200°
2026-05-07 11:43 33.55205 -84.58554 7673 ft 273 kts 188°
2026-05-07 11:43 33.53281 -84.58540 8405 ft 279 kts 187°
2026-05-07 11:44 33.53122 -84.58537 8467 ft 279 kts 187°
2026-05-07 11:44 33.52407 -84.58524 8743 ft 282 kts 187°
2026-05-07 11:44 33.50444 -84.58495 9468 ft 285 kts 187°
2026-05-07 11:44 33.48439 -84.58107 10140 ft 306 kts 165°
2026-05-07 11:45 33.46665 -84.56608 10767 ft 328 kts 136°
2026-05-07 11:45 33.45421 -84.54179 11013 ft 360 kts 112°
2026-05-07 11:45 33.45382 -84.54053 11019 ft 361 kts 111°
2026-05-07 11:45 33.45118 -84.52903 11083 ft 372 kts 102°
2026-05-07 11:46 33.45057 -84.49769 11242 ft 393 kts 80°
2026-05-07 11:46 33.45679 -84.46503 11411 ft 411 kts 73°
2026-05-07 11:46 33.46503 -84.43132 11776 ft 421 kts 71°
2026-05-07 11:46 33.47367 -84.39810 12282 ft 426 kts 70°
2026-05-07 11:47 33.47389 -84.39724 12295 ft 426 kts 70°
2026-05-07 11:47 33.47627 -84.38812 12447 ft 427 kts 70°
2026-05-07 11:47 33.48510 -84.35399 13061 ft 431 kts 71°
2026-05-07 11:47 33.49383 -84.31947 13576 ft 436 kts 71°
2026-05-07 11:48 33.50249 -84.28448 14036 ft 440 kts 71°
2026-05-07 11:48 33.51093 -84.24977 14582 ft 441 kts 71°
2026-05-07 11:48 33.51519 -84.23212 14816 ft 443 kts 71°
2026-05-07 11:49 33.52376 -84.19646 15217 ft 449 kts 72°
2026-05-07 11:49 33.53242 -84.16026 15630 ft 454 kts 72°
2026-05-07 11:49 33.54115 -84.12371 16081 ft 458 kts 72°
2026-05-07 11:49 33.54944 -84.08899 16451 ft 463 kts 71°
2026-05-07 11:50 33.55587 -84.06202 16671 ft 469 kts 71°
2026-05-07 11:50 33.56488 -84.02421 17068 ft 474 kts 71°
2026-05-07 11:50 33.57393 -83.98618 17521 ft 477 kts 71°
2026-05-07 11:51 33.58307 -83.94768 17945 ft 481 kts 71°
2026-05-07 11:51 33.59140 -83.91259 18286 ft 485 kts 72°
2026-05-07 11:51 33.59863 -83.88206 18659 ft 484 kts 72°
2026-05-07 11:52 33.60781 -83.84323 19106 ft 485 kts 72°
2026-05-07 11:52 33.61699 -83.80434 19477 ft 488 kts 72°
2026-05-07 11:52 33.62615 -83.76552 19817 ft 492 kts 72°
2026-05-07 11:52 33.63428 -83.73100 20118 ft 495 kts 72°
2026-05-07 11:53 33.64158 -83.70000 20387 ft 497 kts 72°
2026-05-07 11:53 33.65100 -83.65991 20747 ft 500 kts 72°
2026-05-07 11:53 33.66032 -83.61972 21087 ft 502 kts 74°
2026-05-07 11:54 33.66859 -83.57881 21408 ft 505 kts 76°
2026-05-07 11:54 33.67491 -83.54422 21660 ft 507 kts 77°
2026-05-07 11:54 33.68135 -83.50768 21962 ft 509 kts 77°
2026-05-07 11:55 33.68871 -83.46609 22342 ft 510 kts 77°
2026-05-07 11:55 33.69622 -83.42440 22648 ft 512 kts 76°
2026-05-07 11:55 33.70392 -83.38253 22922 ft 515 kts 76°
2026-05-07 11:55 33.71016 -83.34894 23155 ft 517 kts 76°
2026-05-07 11:56 33.71658 -83.31448 23385 ft 519 kts 76°
2026-05-07 11:56 33.72446 -83.27210 23629 ft 521 kts 76°
2026-05-07 11:56 33.73225 -83.23008 23877 ft 523 kts 76°
2026-05-07 11:57 33.74016 -83.18742 24133 ft 524 kts 75°
2026-05-07 11:57 33.74789 -83.15497 24319 ft 524 kts 68°
2026-05-07 11:57 33.76138 -83.11612 24583 ft 520 kts 59°
2026-05-07 11:58 33.77971 -83.07879 24780 ft 520 kts 53°
2026-05-07 11:58 33.79933 -83.04199 24899 ft 524 kts 53°
2026-05-07 11:58 33.81914 -83.00507 25107 ft 526 kts 53°
2026-05-07 11:58 33.83341 -82.97820 25295 ft 526 kts 53°
2026-05-07 11:59 33.83357 -82.97791 25297 ft 526 kts 53°
2026-05-07 11:59 33.85312 -82.94063 25545 ft 527 kts 54°
2026-05-07 11:59 33.87252 -82.90320 25766 ft 529 kts 54°
2026-05-07 11:59 33.89193 -82.86549 25961 ft 531 kts 54°
2026-05-07 12:00 33.91137 -82.82757 26157 ft 533 kts 54°
2026-05-07 12:00 33.92501 -82.80097 26312 ft 534 kts 54°
2026-05-07 12:00 33.92680 -82.79747 26333 ft 535 kts 54°
2026-05-07 12:00 33.94634 -82.75936 26616 ft 535 kts 54°
2026-05-07 12:01 33.96586 -82.72130 26965 ft 534 kts 54°
2026-05-07 12:01 33.98539 -82.68321 27212 ft 535 kts 54°
2026-05-07 12:01 34.00490 -82.64495 27427 ft 539 kts 55°
2026-05-07 12:01 34.01811 -82.61893 27447 ft 544 kts 55°
2026-05-07 12:02 34.03593 -82.58368 27525 ft 548 kts 55°
2026-05-07 12:02 34.05579 -82.54430 27741 ft 550 kts 55°
2026-05-07 12:02 34.07565 -82.50484 27990 ft 551 kts 55°
2026-05-07 12:03 34.09556 -82.46527 28239 ft 552 kts 55°
2026-05-07 12:03 34.10808 -82.44037 28389 ft 552 kts 55°
2026-05-07 12:03 34.12722 -82.40232 28641 ft 552 kts 55°
2026-05-07 12:04 34.14704 -82.36287 29217 ft 545 kts 56°
2026-05-07 12:04 34.16659 -82.32390 29689 ft 542 kts 56°
2026-05-07 12:04 34.18612 -82.28496 29999 ft 543 kts 56°
2026-05-07 12:04 34.19777 -82.26173 30121 ft 544 kts 56°
2026-05-07 12:05 34.19934 -82.25859 30146 ft 544 kts 56°
2026-05-07 12:05 34.21893 -82.21948 30347 ft 546 kts 56°
2026-05-07 12:05 34.23861 -82.18015 30553 ft 548 kts 56°
2026-05-07 12:05 34.25789 -82.14014 30698 ft 553 kts 60°
2026-05-07 12:06 34.27494 -82.09838 30912 ft 555 kts 63°
2026-05-07 12:06 34.28387 -82.07482 31073 ft 555 kts 64°
2026-05-07 12:06 34.29634 -82.04075 31337 ft 554 kts 65°
2026-05-07 12:07 34.31175 -81.99799 31666 ft 553 kts 65°
2026-05-07 12:07 34.33224 -81.94152 32070 ft 553 kts 65°
2026-05-07 12:07 34.34788 -81.89914 32401 ft 552 kts 64°
2026-05-07 12:07 34.35624 -81.87668 32581 ft 551 kts 64°
2026-05-07 12:08 34.36939 -81.84161 32847 ft 550 kts 64°
2026-05-07 12:08 34.38502 -81.80006 32935 ft 553 kts 64°
2026-05-07 12:09 34.41692 -81.71527 32938 ft 552 kts 64°
2026-05-07 12:09 34.43007 -81.68019 32925 ft 551 kts 64°
2026-05-07 12:10 34.45925 -81.60210 32917 ft 548 kts 65°
2026-05-07 12:10 34.49052 -81.51813 32904 ft 546 kts 65°
2026-05-07 12:11 34.50278 -81.48514 32899 ft 546 kts 65°
2026-05-07 12:11 34.53120 -81.40857 32908 ft 547 kts 65°
2026-05-07 12:12 34.56238 -81.32437 32910 ft 548 kts 65°
2026-05-07 12:12 34.57412 -81.29263 32914 ft 549 kts 65°
2026-05-07 12:13 34.60293 -81.21465 32914 ft 550 kts 65°
2026-05-07 12:13 34.63424 -81.12981 32903 ft 550 kts 65°
2026-05-07 12:14 34.64558 -81.09903 32906 ft 550 kts 65°
2026-05-07 12:14 34.67585 -81.01669 32924 ft 551 kts 65°
2026-05-07 12:15 34.70706 -80.93156 32928 ft 552 kts 65°
2026-05-07 12:15 34.71796 -80.90176 32922 ft 552 kts 65°
2026-05-07 12:16 34.74914 -80.81639 32922 ft 552 kts 65°
2026-05-07 12:16 34.78026 -80.73097 32914 ft 553 kts 65°
2026-05-07 12:17 34.79076 -80.70210 32912 ft 553 kts 65°
2026-05-07 12:17 34.82182 -80.61652 32896 ft 552 kts 65°
2026-05-07 12:18 34.85256 -80.53159 32878 ft 552 kts 65°
2026-05-07 12:18 34.86226 -80.50474 32893 ft 551 kts 65°
2026-05-07 12:19 34.89065 -80.42609 32908 ft 550 kts 65°
2026-05-07 12:19 34.92168 -80.34106 32906 ft 549 kts 64°
2026-05-07 12:20 34.93223 -80.31234 32912 ft 549 kts 64°
2026-05-07 12:20 34.96331 -80.22748 32918 ft 548 kts 65°
2026-05-07 12:21 34.99425 -80.14248 32919 ft 548 kts 64°
2026-05-07 12:21 35.00273 -80.11915 32922 ft 548 kts 64°
2026-05-07 12:22 35.03293 -80.03582 32915 ft 547 kts 64°
2026-05-07 12:22 35.06354 -79.95089 32903 ft 547 kts 64°
2026-05-07 12:23 35.07253 -79.92591 32904 ft 547 kts 64°
2026-05-07 12:23 35.10313 -79.84074 32908 ft 548 kts 65°
2026-05-07 12:24 35.13369 -79.75547 32922 ft 548 kts 64°
2026-05-07 12:24 35.14340 -79.72832 32912 ft 549 kts 64°
2026-05-07 12:25 35.17393 -79.64269 32915 ft 550 kts 65°
2026-05-07 12:25 35.20420 -79.55690 32927 ft 550 kts 65°
2026-05-07 12:26 35.21096 -79.53769 32928 ft 550 kts 65°
2026-05-07 12:26 35.24098 -79.45226 32928 ft 551 kts 65°
2026-05-07 12:27 35.27099 -79.36667 32932 ft 550 kts 65°
2026-05-07 12:27 35.27799 -79.34671 32931 ft 550 kts 65°
2026-05-07 12:28 35.30813 -79.26055 32931 ft 551 kts 65°
2026-05-07 12:28 35.33823 -79.17428 32923 ft 551 kts 65°
2026-05-07 12:29 35.34546 -79.15350 32897 ft 551 kts 65°
2026-05-07 12:29 35.37549 -79.06709 32889 ft 551 kts 65°
2026-05-07 12:30 35.40543 -78.98068 32907 ft 551 kts 64°
2026-05-07 12:30 35.41517 -78.95256 32901 ft 550 kts 64°
2026-05-07 12:31 35.44497 -78.86623 32902 ft 550 kts 64°
2026-05-07 12:31 35.47469 -78.77977 32902 ft 549 kts 65°
2026-05-07 12:32 35.48258 -78.75678 32900 ft 549 kts 65°
2026-05-07 12:32 35.51216 -78.67036 32910 ft 549 kts 65°
2026-05-07 12:33 35.54558 -78.57249 32905 ft 547 kts 65°
2026-05-07 12:33 35.56494 -78.51563 32910 ft 547 kts 65°
2026-05-07 12:34 35.59421 -78.42949 32918 ft 546 kts 65°
2026-05-07 12:34 35.61241 -78.37580 32914 ft 545 kts 65°
2026-05-07 12:35 35.63060 -78.32205 32915 ft 545 kts 65°
2026-05-07 12:35 35.65941 -78.23666 32747 ft 532 kts 65°
2026-05-07 12:36 35.67356 -78.19465 32090 ft 532 kts 65°
2026-05-07 12:36 35.67653 -78.18583 31950 ft 532 kts 65°
2026-05-07 12:36 35.68161 -78.17073 31711 ft 532 kts 65°
2026-05-07 12:36 35.69574 -78.12873 31027 ft 531 kts 65°
2026-05-07 12:37 35.70987 -78.08667 30317 ft 531 kts 65°
2026-05-07 12:37 35.72398 -78.04459 29482 ft 532 kts 65°
2026-05-07 12:37 35.73802 -78.00265 28890 ft 527 kts 65°
2026-05-07 12:37 35.74043 -77.99545 28804 ft 525 kts 65°
2026-05-07 12:38 35.74540 -77.98055 28591 ft 523 kts 65°
2026-05-07 12:38 35.75915 -77.93935 28023 ft 517 kts 65°
2026-05-07 12:38 35.77272 -77.89867 27492 ft 511 kts 65°
2026-05-07 12:38 35.78613 -77.85840 26938 ft 505 kts 65°
2026-05-07 12:39 35.79939 -77.81854 26414 ft 500 kts 64°
2026-05-07 12:39 35.80117 -77.81320 26342 ft 499 kts 64°
2026-05-07 12:39 35.80800 -77.79267 26042 ft 497 kts 64°
2026-05-07 12:39 35.82104 -77.75342 25524 ft 492 kts 64°
2026-05-07 12:40 35.83391 -77.71461 25010 ft 488 kts 64°
2026-05-07 12:40 35.84771 -77.67678 24496 ft 479 kts 54°
2026-05-07 12:40 35.86741 -77.64476 24179 ft 463 kts 44°
2026-05-07 12:40 35.86936 -77.64189 24134 ft 463 kts 44°
2026-05-07 12:41 35.88143 -77.62416 23819 ft 462 kts 44°
2026-05-07 12:41 35.90171 -77.59428 23289 ft 459 kts 44°
2026-05-07 12:41 35.92204 -77.56404 22711 ft 456 kts 45°
2026-05-07 12:41 35.94210 -77.53388 22180 ft 452 kts 46°
2026-05-07 12:42 35.96184 -77.50392 21662 ft 448 kts 46°
2026-05-07 12:42 35.96325 -77.50178 21618 ft 448 kts 46°
2026-05-07 12:42 35.97146 -77.48926 21419 ft 446 kts 46°
2026-05-07 12:42 35.99090 -77.45957 20914 ft 442 kts 46°
2026-05-07 12:43 36.01016 -77.43010 20422 ft 439 kts 46°
2026-05-07 12:43 36.02923 -77.40090 19925 ft 435 kts 46°
2026-05-07 12:43 36.04815 -77.37191 19442 ft 432 kts 47°
2026-05-07 12:43 36.04877 -77.37095 19427 ft 432 kts 47°
2026-05-07 12:44 36.06175 -77.35106 19097 ft 430 kts 47°
2026-05-07 12:44 36.08046 -77.32235 18621 ft 428 kts 48°
2026-05-07 12:44 36.09904 -77.29385 18096 ft 427 kts 48°
2026-05-07 12:44 36.11759 -77.26535 17559 ft 425 kts 48°
2026-05-07 12:45 36.13600 -77.23705 17121 ft 420 kts 49°
2026-05-07 12:45 36.14495 -77.22327 16880 ft 419 kts 48°
2026-05-07 12:45 36.16314 -77.19529 16390 ft 416 kts 48°
2026-05-07 12:46 36.18119 -77.16747 15927 ft 413 kts 48°
2026-05-07 12:46 36.19905 -77.13991 15646 ft 405 kts 48°
2026-05-07 12:46 36.21580 -77.11403 15409 ft 397 kts 48°
2026-05-07 12:47 36.22771 -77.09563 15094 ft 396 kts 48°
2026-05-07 12:47 36.24493 -77.06903 14618 ft 396 kts 48°
2026-05-07 12:47 36.26215 -77.04242 14205 ft 394 kts 49°
2026-05-07 12:47 36.27923 -77.01599 13798 ft 392 kts 49°
2026-05-07 12:48 36.29484 -76.99181 13395 ft 389 kts 49°
2026-05-07 12:48 36.30786 -76.97163 13064 ft 387 kts 49°
2026-05-07 12:48 36.32438 -76.94600 12641 ft 384 kts 49°
2026-05-07 12:49 36.34118 -76.91994 12206 ft 381 kts 49°
2026-05-07 12:49 36.35758 -76.89445 11982 ft 372 kts 49°
2026-05-07 12:49 36.37156 -76.87277 11937 ft 358 kts 48°
2026-05-07 12:50 36.38377 -76.85554 11919 ft 346 kts 44°
2026-05-07 12:50 36.39998 -76.83417 11936 ft 337 kts 45°
2026-05-07 12:50 36.41548 -76.81246 11913 ft 334 kts 46°
2026-05-07 12:50 36.43061 -76.79078 11691 ft 331 kts 46°
2026-05-07 12:51 36.44347 -76.77229 11349 ft 332 kts 46°
2026-05-07 12:51 36.45543 -76.75514 11042 ft 333 kts 46°
2026-05-07 12:51 36.47055 -76.73351 10722 ft 332 kts 46°
2026-05-07 12:52 36.48570 -76.71191 10423 ft 331 kts 46°
2026-05-07 12:52 36.50070 -76.69060 10318 ft 321 kts 47°
2026-05-07 12:52 36.51246 -76.67385 10250 ft 312 kts 47°
2026-05-07 12:53 36.52564 -76.65509 10049 ft 307 kts 47°
2026-05-07 12:53 36.53970 -76.63510 9749 ft 306 kts 47°
2026-05-07 12:53 36.55356 -76.61539 9442 ft 299 kts 47°
2026-05-07 12:53 36.56719 -76.59600 9004 ft 297 kts 47°
2026-05-07 12:54 36.57757 -76.58122 8596 ft 295 kts 47°
2026-05-07 12:54 36.58902 -76.56491 8138 ft 293 kts 47°
2026-05-07 12:54 36.60239 -76.54587 7606 ft 290 kts 47°
2026-05-07 12:55 36.61561 -76.52702 7083 ft 287 kts 47°
2026-05-07 12:55 36.62861 -76.50848 6614 ft 282 kts 46°
2026-05-07 12:55 36.63818 -76.49482 6281 ft 280 kts 46°
2026-05-07 12:56 36.65000 -76.47794 5854 ft 279 kts 46°
2026-05-07 12:56 36.66269 -76.45982 5401 ft 276 kts 46°
2026-05-07 12:56 36.67524 -76.44189 4986 ft 274 kts 46°
2026-05-07 12:56 36.68768 -76.42412 4544 ft 271 kts 47°
2026-05-07 12:57 36.69630 -76.41177 4240 ft 269 kts 46°
2026-05-07 12:57 36.70621 -76.39763 3887 ft 264 kts 47°
2026-05-07 12:57 36.71806 -76.38061 3515 ft 256 kts 47°
2026-05-07 12:58 36.72941 -76.36425 3128 ft 249 kts 46°
2026-05-07 12:58 36.73715 -76.35354 2860 ft 243 kts 41°
2026-05-07 12:58 36.74956 -76.33954 2479 ft 239 kts 43°
2026-05-07 12:58 36.75003 -76.33894 2461 ft 239 kts 43°
2026-05-07 12:59 36.76209 -76.32559 2307 ft 225 kts 29°
2026-05-07 12:59 36.77523 -76.31611 2140 ft 212 kts 24°
2026-05-07 12:59 36.78762 -76.30797 2102 ft 194 kts 27°
2026-05-07 12:59 36.79807 -76.29670 1929 ft 203 kts 41°
2026-05-07 13:00 36.80486 -76.28885 1897 ft 199 kts 33°
2026-05-07 13:00 36.81549 -76.27813 1868 ft 191 kts 37°
2026-05-07 13:00 36.82561 -76.26665 1482 ft 204 kts 42°
2026-05-07 13:00 36.83529 -76.25466 1311 ft 189 kts 39°
2026-05-07 13:01 36.84495 -76.24479 1224 ft 166 kts 29°
2026-05-07 13:01 36.85412 -76.23724 991 ft 155 kts 27°
2026-05-07 13:01 36.86317 -76.22999 725 ft 151 kts 34°
2026-05-07 13:01 36.87127 -76.22246 524 ft 139 kts 35°
2026-05-07 13:02 36.87872 -76.21508 304 ft 135 kts 32°
2026-05-07 13:02 36.88620 -76.20799 98 ft 134 kts 36°
2026-05-07 13:02 36.89310 -76.20132 10 ft 114 kts 38°
2026-05-07 13:02 36.89829 -76.19634 3 ft 73 kts 38°
2026-05-07 13:03 36.90112 -76.19356 3 ft 30 kts 37°
2026-05-07 13:03 36.90188 -76.19303 2 ft 11 kts
2026-05-07 13:03 36.90253 -76.19342 2 ft 10 kts 314°
2026-05-07 13:03 36.90291 -76.19399 2 ft 7 kts 305°
2026-05-07 13:04 36.90292 -76.19444 2 ft 4 kts 234°
2026-05-07 13:04 36.90266 -76.19471 2 ft 6 kts 216°
2026-05-07 13:04 36.90216 -76.19504 2 ft 10 kts 205°
2026-05-07 13:04 36.90136 -76.19555 2 ft 15 kts 210°
2026-05-07 13:05 36.90037 -76.19643 2 ft 20 kts 218°
2026-05-07 13:05 36.89923 -76.19758 2 ft 22 kts 219°
2026-05-07 13:05 36.89802 -76.19873 2 ft 20 kts 218°
2026-05-07 13:05 36.89736 -76.19954 2 ft 10 kts 252°
2026-05-07 13:06 36.89752 -76.20032 2 ft 9 kts 292°
2026-05-07 13:06 36.89772 -76.20094 3 ft 7 kts 286°
2026-05-07 13:06 36.89761 -76.20138 3 ft 5 kts 230°
2026-05-07 13:06 36.89741 -76.20160 3 ft 3 kts 217°
2026-05-07 13:07 36.89726 -76.20174 3 ft 2 kts 217°
2026-05-07 13:07 36.89718 -76.20182 2 ft 0 kts 217°